Preston, Minnesota, United States (55965)
Lat: 43.67N, Lon: 92.08W
Wx Zone: MNZ095
Local Info
Past Weather Observations for Tuesday, January 27, 2015

NOTE: This archive is for the closest National Weather Service station to Preston. Information may differ from the station used for current weather conditions.

Click here for Long-term Archive

Time Weather Temperature Dewpoint Humidity Pressure Winds Precip Visibility
23:55
Overcast
27°F / -3°C 23°F / -5°C 86% 30.15 in
(1021 mb)
SSE 12.7 mph
(SSE 20 kph)
- 7SM
23:35
Overcast
27°F / -3°C 23°F / -5°C 86% 30.15 in
(1021 mb)
S 12.7 mph
(S 20 kph)
- 10SM
23:15
Overcast
27°F / -3°C 23°F / -5°C 86% 30.15 in
(1021 mb)
S 9.2 mph
(S 15 kph)
- 10SM
22:55
Overcast
27°F / -3°C 23°F / -5°C 86% 30.15 in
(1021 mb)
SSE 11.5 mph
(SSE 19 kph)
- 7SM
22:35
Overcast
27°F / -3°C 23°F / -5°C 86% 30.15 in
(1021 mb)
S 8.1 mph
(S 13 kph)
- 10SM
22:15
Overcast
27°F / -3°C 23°F / -5°C 86% 30.15 in
(1021 mb)
SSE 10.4 mph
(SSE 17 kph)
- 10SM
21:55
Overcast
27°F / -3°C 23°F / -5°C 86% 30.15 in
(1021 mb)
S 9.2 mph
(S 15 kph)
- 10SM
21:35
Overcast
27°F / -3°C 23°F / -5°C 86% 30.15 in
(1021 mb)
S 8.1 mph
(S 13 kph)
- 10SM
21:15
Overcast
27°F / -3°C 23°F / -5°C 86% 30.15 in
(1021 mb)
S 13.8 mph
(S 22 kph)
- 10SM
20:55
Overcast
27°F / -3°C 23°F / -5°C 86% 30.15 in
(1021 mb)
SSE 9.2 mph
(SSE 15 kph)
- 10SM
20:35
Overcast
27°F / -3°C 23°F / -5°C 86% 30.15 in
(1021 mb)
SSE 8.1 mph
(SSE 13 kph)
- 10SM
20:15
Overcast
27°F / -3°C 23°F / -5°C 86% 30.15 in
(1021 mb)
SSE 11.5 mph
(SSE 19 kph)
- 10SM
19:55
Overcast
27°F / -3°C 23°F / -5°C 86% 30.15 in
(1021 mb)
SSE 6.9 mph
(SSE 11 kph)
- 10SM
19:35
Overcast
27°F / -3°C 23°F / -5°C 86% 30.15 in
(1021 mb)
SSE 6.9 mph
(SSE 11 kph)
- 10SM
19:15
Overcast
28°F / -2°C 23°F / -5°C 80% 30.15 in
(1021 mb)
SSE 8.1 mph
(SSE 13 kph)
- 10SM
18:55
Overcast
28°F / -2°C 23°F / -5°C 80% 30.15 in
(1021 mb)
SE 5.8 mph
(SE 9 kph)
- 10SM
18:35
Overcast
27°F / -3°C 23°F / -5°C 86% 30.15 in
(1021 mb)
SSE 4.6 mph
(SSE 7 kph)
- 10SM
18:15
Overcast
27°F / -3°C 23°F / -5°C 86% 30.15 in
(1021 mb)
SE 5.8 mph
(SE 9 kph)
- 10SM
17:55
Overcast
28°F / -2°C 23°F / -5°C 80% 30.15 in
(1021 mb)
SE 6.9 mph
(SE 11 kph)
- 10SM
17:35
Overcast
28°F / -2°C 25°F / -4°C 86% 30.18 in
(1022 mb)
SE 3.5 mph
(SE 6 kph)
- 10SM
17:15
Overcast
28°F / -2°C 25°F / -4°C 86% 30.15 in
(1021 mb)
SSE 6.9 mph
(SSE 11 kph)
- 10SM
16:55
Overcast
28°F / -2°C 23°F / -5°C 80% 30.15 in
(1021 mb)
SE 5.8 mph
(SE 9 kph)
- 10SM
16:35
Overcast
28°F / -2°C 23°F / -5°C 80% 30.18 in
(1022 mb)
S 4.6 mph
(S 7 kph)
- 10SM
16:15
Overcast
28°F / -2°C 23°F / -5°C 80% 30.18 in
(1022 mb)
SE 4.6 mph
(SE 7 kph)
- 10SM
15:55
Overcast
28°F / -2°C 23°F / -5°C 80% 30.18 in
(1022 mb)
SE 4.6 mph
(SE 7 kph)
- 10SM
15:35
Overcast
28°F / -2°C 23°F / -5°C 80% 30.18 in
(1022 mb)
SE 3.5 mph
(SE 6 kph)
- 10SM
15:15
Overcast
28°F / -2°C 23°F / -5°C 80% 30.18 in
(1022 mb)
SE 3.5 mph
(SE 6 kph)
- 10SM
14:55
Overcast
28°F / -2°C 23°F / -5°C 80% 30.18 in
(1022 mb)
Calm - 10SM
14:35
Overcast
28°F / -2°C 23°F / -5°C 80% 30.15 in
(1021 mb)
E 4.6 mph
(E 7 kph)
- 10SM
14:15
Overcast
28°F / -2°C 23°F / -5°C 80% 30.15 in
(1021 mb)
ESE 3.5 mph
(ESE 6 kph)
- 10SM
13:55
Overcast
28°F / -2°C 23°F / -5°C 80% 30.15 in
(1021 mb)
ESE 4.6 mph
(ESE 7 kph)
- 10SM
13:35
Overcast
28°F / -2°C 23°F / -5°C 80% 30.15 in
(1021 mb)
E 4.6 mph
(E 7 kph)
- 10SM
13:15
Overcast
28°F / -2°C 23°F / -5°C 80% 30.15 in
(1021 mb)
Calm - 10SM
12:55
Overcast
28°F / -2°C 23°F / -5°C 80% 30.18 in
(1022 mb)
Calm - 10SM
12:35
Overcast
28°F / -2°C 25°F / -4°C 86% 30.18 in
(1022 mb)
E 5.8 mph
(E 9 kph)
- 10SM
12:15
Overcast
28°F / -2°C 25°F / -4°C 86% 30.18 in
(1022 mb)
Calm - 10SM
11:55
Overcast
28°F / -2°C 25°F / -4°C 86% 30.18 in
(1022 mb)
Calm - 10SM
11:35
Overcast
28°F / -2°C 25°F / -4°C 86% 30.18 in
(1022 mb)
Calm - 10SM
11:15
Overcast
28°F / -2°C 25°F / -4°C 86% 30.18 in
(1022 mb)
Calm - 10SM
10:55
Overcast
28°F / -2°C 25°F / -4°C 86% 30.18 in
(1022 mb)
ENE 3.5 mph
(ENE 6 kph)
- 10SM
10:35
Overcast
28°F / -2°C 25°F / -4°C 86% 30.18 in
(1022 mb)
NE 4.6 mph
(NE 7 kph)
- 10SM
10:15
Overcast
28°F / -2°C 25°F / -4°C 86% 30.15 in
(1021 mb)
NE 3.5 mph
(NE 6 kph)
- 10SM
09:55
Overcast
28°F / -2°C 25°F / -4°C 86% 30.15 in
(1021 mb)
NE 5.8 mph
(NE 9 kph)
- 10SM
09:35
Overcast
28°F / -2°C 25°F / -4°C 86% 30.15 in
(1021 mb)
NE 8.1 mph
(NE 13 kph)
- 10SM
09:15
Overcast
28°F / -2°C 25°F / -4°C 86% 30.15 in
(1021 mb)
NE 6.9 mph
(NE 11 kph)
- 7SM
08:55
Overcast
28°F / -2°C 25°F / -4°C 86% 30.12 in
(1020 mb)
NE 6.9 mph
(NE 11 kph)
- 10SM
08:35
Overcast
28°F / -2°C 27°F / -3°C 93% 30.12 in
(1020 mb)
ENE 4.6 mph
(ENE 7 kph)
- 7SM
08:15
Overcast
Fog And Mist
28°F / -2°C 27°F / -3°C 93% 30.12 in
(1020 mb)
ENE 3.5 mph
(ENE 6 kph)
- 5SM
07:55
Overcast
Fog And Mist
28°F / -2°C 27°F / -3°C 93% 30.12 in
(1020 mb)
E 4.6 mph
(E 7 kph)
- 5SM
07:35
Overcast
Fog And Mist
28°F / -2°C 27°F / -3°C 93% 30.12 in
(1020 mb)
ENE 5.8 mph
(ENE 9 kph)
- 5SM
07:15
Overcast
30°F / -1°C 27°F / -3°C 86% 30.09 in
(1019 mb)
NE 5.8 mph
(NE 9 kph)
- 10SM
06:55
Overcast
30°F / -1°C 27°F / -3°C 86% 30.09 in
(1019 mb)
NE 6.9 mph
(NE 11 kph)
- 10SM
06:35
Overcast
30°F / -1°C 27°F / -3°C 86% 30.09 in
(1019 mb)
NE 5.8 mph
(NE 9 kph)
- 7SM
06:15
Overcast
30°F / -1°C 28°F / -2°C 93% 30.06 in
(1018 mb)
NE 4.6 mph
(NE 7 kph)
- 7SM
05:55
Overcast
30°F / -1°C 27°F / -3°C 86% 30.06 in
(1018 mb)
NE 6.9 mph
(NE 11 kph)
- 7SM
05:35
Overcast
30°F / -1°C 27°F / -3°C 86% 30.06 in
(1018 mb)
NE 8.1 mph
(NE 13 kph)
- 7SM
05:15
Overcast
30°F / -1°C 27°F / -3°C 86% 30.06 in
(1018 mb)
NE 6.9 mph
(NE 11 kph)
- 10SM
04:55
Overcast
30°F / -1°C 27°F / -3°C 86% 30.04 in
(1017 mb)
NE 8.1 mph
(NE 13 kph)
- 10SM
04:35
Overcast
32°F / 0°C 28°F / -2°C 87% 30.04 in
(1017 mb)
NE 11.5 mph
(NE 19 kph)
- 10SM
04:15
Overcast
32°F / 0°C 28°F / -2°C 87% 30.04 in
(1017 mb)
NE 8.1 mph
(NE 13 kph)
- 7SM
03:55
Overcast
32°F / 0°C 30°F / -1°C 93% 30.04 in
(1017 mb)
NNE 8.1 mph
(NNE 13 kph)
- 7SM
03:35
Overcast
32°F / 0°C 30°F / -1°C 93% 30.04 in
(1017 mb)
NNE 5.8 mph
(NNE 9 kph)
- 10SM
03:15
Overcast
32°F / 0°C 30°F / -1°C 93% 30.04 in
(1017 mb)
N 4.6 mph
(N 7 kph)
- 10SM
02:55
Overcast
32°F / 0°C 30°F / -1°C 93% 30.01 in
(1016 mb)
NNE 6.9 mph
(NNE 11 kph)
- 10SM
02:35
Overcast
32°F / 0°C 30°F / -1°C 93% 30.01 in
(1016 mb)
NE 8.1 mph
(NE 13 kph)
- 10SM
02:15
Overcast
34°F / 1°C 30°F / -1°C 87% 30.01 in
(1016 mb)
NE 9.2 mph
(NE 15 kph)
- 10SM
01:55
Overcast
34°F / 1°C 28°F / -2°C 81% 29.98 in
(1015 mb)
N 9.2 mph
(N 15 kph)
- 10SM
01:28
Overcast
34°F / 1°C 30°F / -1°C 87% 29.98 in
(1015 mb)
NW 6.9 mph
(NW 11 kph)
- 10SM
01:15
Overcast
34°F / 1°C 30°F / -1°C 87% 29.98 in
(1015 mb)
NW 5.8 mph
(NW 9 kph)
- 10SM
00:55
Overcast
34°F / 1°C 28°F / -2°C 81% 29.98 in
(1015 mb)
NW 8.1 mph
(NW 13 kph)
- 10SM
00:26
Overcast
36°F / 2°C 28°F / -2°C 75% 29.95 in
(1014 mb)
NNW 8.1 mph
(NNW 13 kph)
- 10SM
00:15
Overcast
34°F / 1°C 30°F / -1°C 87% 29.95 in
(1014 mb)
NNW 9.2 mph
(NNW 15 kph)
- 10SM
Time Weather Temperature Dewpoint Humidity Pressure Winds Precip Visibility


Weather for websites

WeatherForYou.com, LLC is not responsible for any damages or problems caused by this service. Current weather conditions are obtained from the closest station including government and personal stations which may have varying degrees of accuracy. Weather forecasts are derived from the NOAA NDFD. Like all things, this site belongs to Jesus Christ... He just trusts me to maintain it. If you have any questions or comments email webmaster@weatherforyou.com

Copyright © 2015, WeatherForYou.com LLC. All rights reserved.